• In Hungary
  • List of Countries
  • For 7 days
  • Water Temperature
  • Satellite Maps
  • Weather Map
  • News
  • Weather Widgets
  • user-avatar
    Login

    Hourly Weather Kapan

    Today, 18 October, Thursday

    Time Temperature Precipitation Wind Pressure Humidity
    00:00 +14°C° 0 mm 1 mps 688 mmHg 82%
    01:00 +13°C° 0 mm 1 mps 688 mmHg 81%
    02:00 +13°C° 0 mm 1 mps 688 mmHg 81%
    03:00 +13°C° 0 mm 1 mps 688 mmHg 80%
    04:00 +13°C° 0 mm 1 mps 688 mmHg 80%
    05:00 +13°C° 0 mm 1 mps 688 mmHg 80%
    06:00 +12°C° 0 mm 1 mps 688 mmHg 80%
    07:00 +14°C° 0 mm 1 mps 688 mmHg 71%
    08:00 +16°C° 0 mm 1 mps 688 mmHg 63%
    09:00 +19°C° 0 mm 1 mps 689 mmHg 54%
    10:00 +20°C° 0 mm 1 mps 689 mmHg 50%
    11:00 +20°C° 0 mm 2 mps 689 mmHg 45%
    12:00 +21°C° 0 mm 2 mps 689 mmHg 41%
    13:00 +21°C° 0 mm 2 mps 688 mmHg 41%
    14:00 +23°C° 0 mm 2 mps 688 mmHg 41%
    15:00 +23°C° 0 mm 2 mps 688 mmHg 41%
    16:00 +20°C° 0 mm 2 mps 688 mmHg 48%
    17:00 +18°C° 0 mm 2 mps 687 mmHg 56%
    18:00 +18°C° 0 mm 1 mps 687 mmHg 64%
    19:00 +16°C° 0 mm 1 mps 687 mmHg 67%
    20:00 +16°C° 0 mm 1 mps 687 mmHg 71%
    21:00 +15°C° 0 mm 1 mps 688 mmHg 75%
    22:00 +15°C° 0 mm 1 mps 688 mmHg 77%
    23:00 +14°C° 0 mm 1 mps 687 mmHg 78%

    Tomorrow, 19 October, Friday

    Time Temperature Precipitation Wind Pressure Humidity
    00:00 +14°C° 0 mm 1 mps 687 mmHg 80%
    01:00 +14°C° 0 mm 1 mps 687 mmHg 80%
    02:00 +14°C° 0 mm 1 mps 687 mmHg 80%
    03:00 +13°C° 0 mm 1 mps 688 mmHg 81%
    04:00 +13°C° 0 mm 1 mps 688 mmHg 80%
    05:00 +13°C° 0 mm 1 mps 687 mmHg 80%
    06:00 +13°C° 0 mm 1 mps 687 mmHg 80%
    07:00 +14°C° 0 mm 1 mps 688 mmHg 71%
    08:00 +16°C° 0 mm 1 mps 689 mmHg 62%
    09:00 +19°C° 0 mm 1 mps 689 mmHg 52%
    10:00 +20°C° 0 mm 1 mps 689 mmHg 48%
    11:00 +20°C° 0 mm 2 mps 689 mmHg 43%
    12:00 +21°C° 0 mm 2 mps 689 mmHg 39%
    13:00 +23°C° 0 mm 2 mps 688 mmHg 39%
    14:00 +23°C° 0 mm 2 mps 688 mmHg 39%
    15:00 +23°C° 0 mm 2 mps 687 mmHg 39%
    16:00 +20°C° 0 mm 2 mps 687 mmHg 47%
    17:00 +19°C° 0 mm 1 mps 687 mmHg 55%
    18:00 +18°C° 0 mm 1 mps 687 mmHg 63%
    19:00 +16°C° 0 mm 1 mps 687 mmHg 65%
    20:00 +16°C° 0 mm 1 mps 687 mmHg 67%
    21:00 +14°C° 0 mm 0 mps 687 mmHg 69%
    22:00 +14°C° 0 mm 0 mps 687 mmHg 69%
    23:00 +14°C° 0 mm 0 mps 687 mmHg 68%

    Day after tomorrow, 20 October, Saturday

    Time Temperature Precipitation Wind Pressure Humidity
    00:00 +15°C° 0 mm 1 mps 686 mmHg 67%
    01:00 +14°C° 0 mm 1 mps 686 mmHg 66%
    02:00 +14°C° 0 mm 1 mps 686 mmHg 65%
    03:00 +14°C° 0 mm 1 mps 686 mmHg 63%
    04:00 +14°C° 0 mm 1 mps 686 mmHg 63%
    05:00 +14°C° 0 mm 1 mps 686 mmHg 62%
    06:00 +14°C° 0 mm 1 mps 686 mmHg 61%
    07:00 +16°C° 0 mm 1 mps 686 mmHg 55%
    08:00 +19°C° 0 mm 1 mps 687 mmHg 48%
    09:00 +21°C° 0 mm 1 mps 688 mmHg 42%
    10:00 +21°C° 0 mm 2 mps 687 mmHg 39%
    11:00 +23°C° 0 mm 2 mps 687 mmHg 36%
    12:00 +24°C° 0 mm 2 mps 687 mmHg 33%
    13:00 +24°C° 0 mm 2 mps 686 mmHg 33%
    14:00 +24°C° 0 mm 2 mps 686 mmHg 34%
    15:00 +24°C° 0 mm 2 mps 686 mmHg 34%
    16:00 +21°C° 0 mm 2 mps 685 mmHg 42%
    17:00 +21°C° 0 mm 1 mps 685 mmHg 49%
    18:00 +19°C° 0 mm 1 mps 685 mmHg 57%
    19:00 +18°C° 0 mm 1 mps 685 mmHg 56%
    20:00 +18°C° 0 mm 1 mps 685 mmHg 56%
    21:00 +18°C° 0 mm 1 mps 685 mmHg 55%
    22:00 +18°C° 0 mm 1 mps 685 mmHg 53%
    23:00 +16°C° 0 mm 1 mps 685 mmHg 52%

    21 October, Sunday

    Time Temperature Precipitation Wind Pressure Humidity
    00:00 +16°C° 0 mm 1 mps 685 mmHg 50%
    01:00 +16°C° 0 mm 1 mps 684 mmHg 49%
    02:00 +16°C° 0 mm 1 mps 684 mmHg 49%
    03:00 +16°C° 0 mm 1 mps 684 mmHg 49%
    04:00 +16°C° 0 mm 1 mps 684 mmHg 49%
    05:00 +15°C° 0 mm 1 mps 684 mmHg 50%
    06:00 +15°C° 0 mm 1 mps 684 mmHg 51%
    07:00 +18°C° 0 mm 1 mps 685 mmHg 48%
    08:00 +20°C° 0 mm 1 mps 685 mmHg 44%
    09:00 +22°C° 0 mm 1 mps 686 mmHg 40%
    10:00 +22°C° 0.1 mm 1 mps 686 mmHg 40%
    11:00 +23°C° 0.1 mm 2 mps 685 mmHg 40%
    12:00 +23°C° 0.1 mm 2 mps 685 mmHg 40%
    13:00 +23°C° 0.1 mm 2 mps 685 mmHg 41%
    14:00 +23°C° 0.1 mm 2 mps 684 mmHg 42%
    15:00 +22°C° 0.1 mm 3 mps 684 mmHg 44%
    16:00 +21°C° 0 mm 2 mps 684 mmHg 50%
    17:00 +19°C° 0 mm 2 mps 684 mmHg 55%
    18:00 +19°C° 0 mm 1 mps 683 mmHg 61%
    19:00 +18°C° 0 mm 1 mps 683 mmHg 63%
    20:00 +18°C° 0 mm 1 mps 683 mmHg 65%
    21:00 +18°C° 0 mm 1 mps 683 mmHg 67%
    22:00 +16°C° 0 mm 1 mps 683 mmHg 67%
    23:00 +16°C° 0 mm 1 mps 683 mmHg 67%

    22 October, Monday

    Time Temperature Precipitation Wind Pressure Humidity
    00:00 +16°C° 0 mm 1 mps 683 mmHg 66%
    01:00 +16°C° 0 mm 1 mps 683 mmHg 66%
    02:00 +16°C° 0 mm 2 mps 683 mmHg 67%
    03:00 +15°C° 0 mm 2 mps 683 mmHg 67%
    04:00 +15°C° 0 mm 2 mps 683 mmHg 68%
    05:00 +15°C° 0 mm 2 mps 683 mmHg 68%
    06:00 +15°C° 0 mm 2 mps 683 mmHg 68%
    07:00 +17°C° 0 mm 2 mps 684 mmHg 61%
    08:00 +19°C° 0 mm 2 mps 684 mmHg 54%
    09:00 +21°C° 0 mm 2 mps 685 mmHg 47%
    10:00 +23°C° 0 mm 2 mps 685 mmHg 42%
    11:00 +24°C° 0 mm 3 mps 685 mmHg 38%
    12:00 +25°C° 0 mm 3 mps 685 mmHg 33%
    13:00 +25°C° 0 mm 3 mps 685 mmHg 32%
    14:00 +25°C° 0 mm 3 mps 684 mmHg 31%
    15:00 +25°C° 0 mm 3 mps 684 mmHg 30%
    16:00 +24°C° 0 mm 2 mps 684 mmHg 36%
    17:00 +21°C° 0 mm 2 mps 684 mmHg 41%
    18:00 +20°C° 0 mm 1 mps 684 mmHg 46%
    19:00 +20°C° 0 mm 1 mps 685 mmHg 47%
    20:00 +18°C° 0 mm 2 mps 685 mmHg 48%
    21:00 +18°C° 0 mm 2 mps 685 mmHg 49%
    22:00 +17°C° 0 mm 2 mps 685 mmHg 49%
    23:00 +17°C° 0 mm 2 mps 685 mmHg 49%

    23 October, Tuesday

    Time Temperature Precipitation Wind Pressure Humidity
    00:00 +17°C° 0 mm 2 mps 685 mmHg 49%
    01:00 +17°C° 0 mm 2 mps 685 mmHg 49%
    02:00 +17°C° 0 mm 3 mps 685 mmHg 49%
    03:00 +16°C° 0 mm 3 mps 685 mmHg 49%
    04:00 +16°C° 0 mm 3 mps 686 mmHg 50%
    05:00 +16°C° 0 mm 2 mps 686 mmHg 50%
    06:00 +16°C° 0 mm 2 mps 686 mmHg 51%
    07:00 +18°C° 0 mm 2 mps 686 mmHg 46%
    08:00 +20°C° 0 mm 2 mps 687 mmHg 41%
    09:00 +23°C° 0 mm 2 mps 687 mmHg 36%
    10:00 +24°C° 0 mm 2 mps 687 mmHg 34%
    11:00 +25°C° 0 mm 3 mps 687 mmHg 31%
    12:00 +26°C° 0 mm 3 mps 687 mmHg 29%
    13:00 +26°C° 0 mm 3 mps 687 mmHg 30%
    14:00 +26°C° 0 mm 3 mps 686 mmHg 30%
    15:00 +26°C° 0 mm 2 mps 686 mmHg 31%
    16:00 +24°C° 0 mm 2 mps 686 mmHg 35%
    17:00 +23°C° 0 mm 2 mps 686 mmHg 39%
    18:00 +21°C° 0 mm 1 mps 685 mmHg 43%
    19:00 +20°C° 0 mm 2 mps 685 mmHg 45%
    20:00 +19°C° 0 mm 2 mps 685 mmHg 46%
    21:00 +19°C° 0 mm 2 mps 685 mmHg 48%
    22:00 +18°C° 0 mm 2 mps 685 mmHg 48%
    23:00 +18°C° 0 mm 2 mps 685 mmHg 48%
    Show more